User: anonymous   Login
Location: Unspecified
(0.0000°N, 0.0000°E)
Time: 05:21:43
(UTC+00:00)
Language:

MUOS 5 - Orbit

View from above orbital plane
View from above orbital plane
View from above satellite
View from above satellite

Ground track
Ground track

The orbit data is extracted from the following two-line orbital elements,

1 41622U 16041A   18244.21577623 0.00000000  00000-0  00000-0 0    02
2 41622   8.5373 313.9401 0208615 203.3948 155.6539  1.00270000    09
Epoch (UTC): 01 September 2018 05:10:43
Eccentricity: 0.0208615
inclination: 8.5373°
perigee height: 34907 km
apogee height: 36666 km
right ascension of ascending node: 313.9401°
argument of perigee: 203.3948°
revolutions per day: 1.00270000
mean anomaly at epoch: 155.6539°
orbit number at epoch: 0

The dashed part of the orbit path shows where the satellite is in the earth's shadow,  

DLR